Satellite: NOAA-19
Catalog number: 33591
Epoch time:      12067.69401595
Element set:    0291
Inclination:      098.8553 deg
RA of node:       008.7849 deg
Eccentricity:    0.0013541
Arg of perigee:   311.3380 deg
Mean anomaly:     048.6619 deg
Mean motion:   14.11301114 rev/day
Decay rate:        5.0e-08 rev/day^2
Epoch rev:           15869
Checksum:              302

/EX
SB KEPS @ AMSAT  $ORB12068.M
Orbital Elements  12068.MISC

HR AMSAT ORBITAL ELEMENTS FOR MANNED AND MISCELLANEOUS SATELLITES
FROM WA5QGD FORT WORTH,TX March 8, 2012
Send SUBSCRIBE KEPS/UNSUBSCRIBE KEPS to majordomo@amsat.org only
BID: ORB12068.M
TO ALL RADIO AMATEURS BT

Satellite: HUBBLE
Catalog number: 20580
Epoch time:      12068.28511873
Element set:     958
Inclination:      028.4699 deg
RA of node:       083.7260 deg
Eccentricity:    0.0003334
Arg of perigee:   068.9947 deg
Mean anomaly:     291.1075 deg
Mean motion:   15.02245874 rev/day
Decay rate:      1.749e-05 rev/day^2
Epoch rev:           99954
Checksum:              337

Satellite: ISS
Catalog number: 25544
Epoch time:      12068.80260505
Element set:     153
Inclination:      051.6406 deg
RA of node:       265.4244 deg
Eccentricity:    0.0017716
Arg of perigee:   134.9286 deg
Mean anomaly:     342.9388 deg
Mean motion:   15.58908139 rev/day
Decay rate:     1.7971e-04 rev/day^2
Epoch rev:           76236
Checksum:              318

Satellite: CO-58
Catalog number: 28895
Epoch time:      12068.58335821
Element set:     117
Inclination:      097.9315 deg
RA of node:       299.2012 deg
Eccentricity:    0.0018768
Arg of perigee:   106.2309 deg
Mean anomaly:     254.0982 deg
Mean motion:   14.60508883 rev/day
Decay rate:       7.65e-06 rev/day^2
Epoch rev:           33897
Checksum:              347

Satellite: FALCON
Catalog number: 30776
Epoch time:      12067.70517199
Element set:    0318
Inclination:      035.4321 deg
RA of node:       176.3304 deg
Eccentricity:    0.0002063
Arg of perigee:   230.9842 deg
Mean anomaly:     129.0692 deg
Mean motion:   15.06766555 rev/day
Decay rate:      4.034e-05 rev/day^2
Epoch rev:           27493
Checksum:              290

Satellite: MAST
Catalog number: 31126
Epoch time:      12067.58859055
Element set:     402
Inclination:      097.8792 deg
RA of node:       084.6209 deg
Eccentricity:    0.0095166
Arg of perigee:   067.4177 deg
Mean anomaly:     293.7048 deg
Mean motion:   14.54052479 rev/day
Decay rate:       6.30e-06 rev/day^2
Epoch rev:           25950
Checksum:              323

Satellite: CAPE1
Catalog number: 31130
Epoch time:      12068.50244326
Element set:     414
Inclination:      097.8857 deg
RA of node:       081.9298 deg
Eccentricity:    0.0102959
Arg of perigee:   076.9724 deg
Mean anomaly:     284.2933 deg
Mean motion:   14.52794403 rev/day
Decay rate:       5.27e-06 rev/day^2
Epoch rev:           25915
Checksum:              318

Satellite: COMPASS
Catalog number: 32787
Epoch time:      12068.65757036
Element set:     243
Inclination:      097.8120 deg
RA of node:       132.1927 deg
Eccentricity:    0.0015913
Arg of perigee:   033.5637 deg
Mean anomaly:     326.6635 deg
Mean motion:   14.83586585 rev/day
Decay rate:      1.978e-05 rev/day^2
Epoch rev:           20890
Checksum:              326

Satellite: AAUSAT2
Catalog number: 32788
Epoch time:      12067.83870776
Element set:    0235
Inclination:      097.8142 deg
RA of node:       131.7188 deg
Eccentricity:    0.0015385
Arg of perigee:   038.5879 deg
Mean anomaly:     321.6416 deg
Mean motion:   14.83868159 rev/day
Decay rate:      1.808e-05 rev/day^2
Epoch rev:           20880
Checksum:              343

Satellite: DO-64
Catalog number: 32789
Epoch time:      12068.65205666
Element set:     249
Inclination:      097.8246 deg
RA of node:       134.1818 deg
Eccentricity:    0.0015065
Arg of perigee:   032.0990 deg
Mean anomaly:     328.1201 deg
Mean motion:   14.85075517 rev/day
Decay rate:      3.570e-05 rev/day^2
Epoch rev:           20895
Checksum:              317

Satellite: CO-66
Catalog number: 32791
Epoch time:      12067.73298487
Element set:    0237
Inclination:      097.8126 deg
RA of node:       131.1043 deg
Eccentricity:    0.0016482
Arg of perigee:   035.9625 deg
Mean anomaly:     324.2705 deg
Mean motion:   14.83074304 rev/day
Decay rate:      1.645e-05 rev/day^2
Epoch rev:           20870
Checksum:              306

Satellite: RS-30
Catalog number: 32953
Epoch time:      12068.76005739
Element set:     590
Inclination:      082.5076 deg
RA of node:       357.5876 deg
Eccentricity:    0.0018473
Arg of perigee:   163.4216 deg
Mean anomaly:     196.7476 deg
Mean motion:   12.43021436 rev/day
Decay rate:        1.0e-07 rev/day^2
Epoch rev:           17208
Checksum:              304

Satellite: TACSAT-3
Catalog number: 35001
Epoch time:      12068.87555765
Element set:     896
Inclination:      040.4479 deg
RA of node:       334.5096 deg
Eccentricity:    0.0011804
Arg of perigee:   262.0547 deg
Mean anomaly:     097.8951 deg
Mean motion:   15.78945931 rev/day
Decay rate:    1.69358e-03 rev/day^2
Epoch rev:           15856
Checksum:              353

